Weather reports worldwide

Advertisment
Chivenor, United Kingdom (3707): temperature & dewpoint: 16.02.2019 01:00:00 - 22.02.2019 01:00:00 (GMT)Chivenor, United Kingdom (3707): temperature -20cm & temperature -100cm: 16.02.2019 01:00:00 - 22.02.2019 01:00:00 (GMT)Chivenor, United Kingdom (3707): wind speed & gusts: 16.02.2019 01:00:00 - 22.02.2019 01:00:00 (GMT)Chivenor, United Kingdom (3707): wind direction: 16.02.2019 01:00:00 - 22.02.2019 01:00:00 (GMT)Chivenor, United Kingdom (3707): reduced air pressure: 16.02.2019 01:00:00 - 22.02.2019 01:00:00 (GMT)Chivenor, United Kingdom (3707): visibility: 16.02.2019 01:00:00 - 22.02.2019 01:00:00 (GMT)Chivenor, United Kingdom (3707): precipitation: 16.02.2019 01:00:00 - 22.02.2019 01:00:00 (GMT)
Date & Time tt [°C] td [°C] tt -20cm [°C] tt -100cm [°C] ff [km/h] ff [kn] fx [km/h] fx [kn] dd ppp [hPa] vv [km] rr [mm]
22.02.2019 01:00:00 8,2 6,7 - - 15 8 - - E 1030,8 10 0,0
22.02.2019 00:00:00 8,3 6,6 - - 21 11 - - E 1030,6 9 0,0
21.02.2019 23:00:00 8,6 6,9 - - 18 10 - - E 1029,7 10 0,0
21.02.2019 22:00:00 8,5 6,7 - - 21 11 - - E 1029,2 11 0,0
21.02.2019 21:00:00 8,8 5,7 - - 18 10 - - ESE 1028,8 40 0,0
21.02.2019 20:00:00 8,8 4,9 - - 16 9 - - SE 1028,3 45 0,0
21.02.2019 19:00:00 9,0 5,7 - - 13 7 - - SE 1027,8 50 0,0
21.02.2019 18:00:00 11,0 5,8 - - 9 5 - - SSE 1027,2 45 0,0
21.02.2019 17:00:00 13,3 6,5 - - 16 9 - - S 1026,4 28 0,0
21.02.2019 16:00:00 14,9 6,2 - - 15 8 - - S 1026,2 50 0,0
21.02.2019 15:00:00 15,5 5,2 - - 21 11 - - S 1026,1 45 0,0
21.02.2019 14:00:00 15,0 7,1 - - 16 9 - - S 1025,7 40 0,0
21.02.2019 13:00:00 14,5 7,9 - - 16 9 - - S 1025,8 35 0,0
21.02.2019 12:00:00 13,5 8,2 - - 16 9 - - S 1025,7 19 0,0
21.02.2019 11:00:00 12,6 8,6 - - 13 7 - - S 1025,3 40 0,0
21.02.2019 10:00:00 11,5 8,2 - - 13 7 - - S 1025,3 35 0,0
21.02.2019 09:00:00 10,9 7,7 8,9 8,9 22 12 - - S 1024,5 24 0,0
21.02.2019 08:00:00 11,0 8,1 - - 11 6 - - S 1023,7 22 0,0
21.02.2019 07:00:00 11,2 8,4 - - 11 6 - - S 1023,0 24 0,0
21.02.2019 06:00:00 11,2 8,8 - - 15 8 - - SSW 1022,5 18 0,0
21.02.2019 05:00:00 11,1 9,1 - - 13 7 - - SSW 1022,5 13 0,0
21.02.2019 04:00:00 11,1 9,2 - - 15 8 - - SSW 1021,9 14 0,0
21.02.2019 03:00:00 11,3 9,2 - - 21 11 - - SSW 1021,6 13 0,0
21.02.2019 02:00:00 11,2 9,0 - - 18 10 - - S 1021,3 22 0,0
21.02.2019 01:00:00 11,4 8,8 - - 18 10 - - S 1020,8 17 0,0
21.02.2019 00:00:00 11,2 8,7 - - 24 13 - - S 1020,6 16 0,0
20.02.2019 23:00:00 11,2 8,6 - - 21 11 - - SSW 1020,6 20 0,0
20.02.2019 22:00:00 11,2 8,2 - - 18 10 - - S 1020,0 24 0,0
20.02.2019 21:00:00 11,0 8,0 - - 21 11 - - S 1019,9 30 0,0
20.02.2019 20:00:00 11,0 8,0 - - 28 15 - - SSW 1019,6 30 0,0
20.02.2019 19:00:00 11,0 7,8 - - 22 12 - - SSW 1019,0 23 0,0
20.02.2019 18:00:00 11,0 7,9 - - 24 13 - - SSW 1018,5 23 0,0
20.02.2019 17:00:00 11,3 7,6 - - 22 12 - - S 1018,4 24 0,0
20.02.2019 16:00:00 11,7 7,5 - - 26 14 - - S 1018,2 30 0,0
20.02.2019 15:00:00 11,7 7,3 - - 26 14 - - SSW 1018,2 20 -
20.02.2019 14:00:00 12,0 7,2 - - 28 15 - - SSW 1018,2 30 -
20.02.2019 13:00:00 12,2 7,3 - - 28 15 - - SSW 1018,0 30 0,0
20.02.2019 12:00:00 11,7 6,9 - - 28 15 - - SSW 1018,0 23 0,0
20.02.2019 11:00:00 11,1 6,9 - - 22 12 - - S 1017,9 25 0,0
20.02.2019 10:00:00 10,5 6,7 - - 22 12 - - S 1017,6 22 0,0
20.02.2019 09:00:00 9,9 6,3 8,4 8,9 22 12 - - S 1017,2 35 0,0
20.02.2019 08:00:00 9,6 6,2 - - 21 11 - - SSW 1016,7 26 0,0
20.02.2019 07:00:00 9,5 6,0 - - 15 8 - - S 1016,1 35 0,0
20.02.2019 06:00:00 9,3 6,3 - - 15 8 - - S 1016,1 30 0,0
20.02.2019 05:00:00 9,4 6,0 - - 16 9 - - S 1016,0 28 0,0
20.02.2019 04:00:00 9,0 6,0 - - 13 7 - - S 1016,1 30 0,0
20.02.2019 03:00:00 9,1 6,2 - - 18 10 - - S 1016,4 29 0,0
20.02.2019 02:00:00 9,1 6,1 - - 16 9 - - S 1016,8 30 0,0
20.02.2019 01:00:00 9,3 5,6 - - 21 11 - - S 1017,0 24 0,0
20.02.2019 00:00:00 9,3 5,6 - - 15 8 - - S 1016,9 35 0,0
19.02.2019 23:00:00 9,2 5,5 - - 15 8 - - S 1017,1 30 0,0
19.02.2019 22:00:00 8,9 5,6 - - 15 8 - - S 1017,3 25 0,0
19.02.2019 21:00:00 9,0 5,0 - - 16 9 - - S 1017,2 30 0,0
19.02.2019 20:00:00 8,9 5,0 - - 16 9 - - S 1017,2 40 0,0
19.02.2019 19:00:00 8,7 4,8 - - 16 9 - - S 1017,2 40 0,0
19.02.2019 18:00:00 8,9 4,5 - - 16 9 - - S 1017,0 50 0,0
19.02.2019 17:00:00 10,0 4,2 - - 21 11 - - S 1017,1 45 0,0
19.02.2019 16:00:00 10,2 4,8 - - 22 12 - - SSW 1017,5 40 0,0
19.02.2019 15:00:00 10,7 4,6 - - 26 14 - - SW 1017,8 35 0,0
19.02.2019 14:00:00 10,4 4,8 - - 24 13 - - SW 1018,0 50 0,0
19.02.2019 13:00:00 10,3 5,1 - - 24 13 - - SSW 1018,4 45 0,0
19.02.2019 12:00:00 9,9 5,1 - - 22 12 - - SW 1018,9 40 0,0
19.02.2019 11:00:00 9,2 5,4 - - 22 12 - - SSW 1019,0 35 0,0
19.02.2019 10:00:00 7,5 4,8 - - 18 10 - - SSW 1019,1 28 0,0
19.02.2019 09:00:00 6,2 4,1 8,0 8,9 16 9 - - S 1019,0 23 0,0
19.02.2019 08:00:00 5,7 4,0 - - 15 8 - - SSW 1018,7 18 0,0
19.02.2019 07:00:00 6,0 4,8 - - 16 9 - - SSW 1018,4 16 0,4
19.02.2019 06:00:00 4,3 3,2 - - 9 5 - - ESE 1018,3 12 0,0
19.02.2019 05:00:00 5,0 3,7 - - 4 2 - - ENE 1018,1 19 0,0
19.02.2019 04:00:00 4,4 3,2 - - 11 6 - - E 1018,1 15 0,0
19.02.2019 03:00:00 5,1 3,6 - - 9 5 - - SW 1018,2 14 0,0
19.02.2019 02:00:00 6,3 4,5 - - 13 7 - - SW 1018,2 14 0,0
19.02.2019 01:00:00 6,5 4,6 - - 15 8 - - SW 1018,0 16 0,0
19.02.2019 00:00:00 6,5 4,7 - - 15 8 - - WSW 1017,7 10 0,0
18.02.2019 23:00:00 6,2 4,6 - - 11 6 - - WSW 1017,5 14 0,0
18.02.2019 22:00:00 7,6 5,7 - - 13 7 - - SW 1017,3 10 0,0
18.02.2019 21:00:00 7,6 5,2 - - 21 11 - - W 1016,7 14 0,0
18.02.2019 20:00:00 8,1 5,7 - - 18 10 - - W 1016,4 11 0,0
18.02.2019 19:00:00 7,9 5,0 - - 24 13 - - W 1016,0 11 0,0
18.02.2019 18:00:00 8,2 4,3 - - 22 12 - - W 1015,4 17 0,0
18.02.2019 17:00:00 9,1 4,2 - - 28 15 - - W 1015,1 17 0,0
18.02.2019 16:00:00 9,5 4,4 - - 26 14 - - W 1014,9 17 0,0
18.02.2019 15:00:00 10,5 4,5 - - 24 13 - - W 1014,5 24 0,0
18.02.2019 14:00:00 10,4 5,7 - - 26 14 - - W 1014,5 26 0,0
18.02.2019 13:00:00 10,6 5,9 - - 21 11 - - W 1014,6 17 0,0
18.02.2019 12:00:00 9,9 7,0 - - 22 12 - - W 1014,6 12 0,0
18.02.2019 11:00:00 8,4 6,5 - - 18 10 - - WSW 1014,3 25 1,6
18.02.2019 10:00:00 8,8 7,2 - - 11 6 - - WSW 1013,9 10 0,0
18.02.2019 09:00:00 8,5 6,4 8,4 8,7 15 8 - - SSW 1013,8 18 0,0
18.02.2019 08:00:00 8,2 5,5 - - 24 13 - - SW 1013,5 25 0,2
18.02.2019 07:00:00 8,2 6,0 - - 21 11 - - SSW 1013,0 18 0,0
18.02.2019 06:00:00 8,2 6,0 - - 18 10 - - S 1013,0 17 0,0
18.02.2019 05:00:00 7,8 5,8 - - 15 8 - - S 1012,9 18 0,0
18.02.2019 04:00:00 8,2 6,1 - - 15 8 - - SSW 1013,0 16 0,0
18.02.2019 03:00:00 8,5 6,3 - - 16 9 - - S 1013,3 16 0,0
18.02.2019 02:00:00 8,5 6,2 - - 15 8 - - S 1013,5 16 0,0
18.02.2019 01:00:00 8,7 6,3 - - 15 8 - - S 1013,8 15 0,0
18.02.2019 00:00:00 8,8 6,1 - - 16 9 - - SSW 1013,7 15 0,0
17.02.2019 23:00:00 9,1 6,5 - - 21 11 - - S 1013,6 13 0,0
17.02.2019 22:00:00 9,5 6,2 - - 22 12 - - SSW 1013,5 14 0,0
17.02.2019 21:00:00 9,9 6,4 - - 18 10 - - SSW 1013,2 16 0,0
17.02.2019 20:00:00 9,9 6,4 - - 22 12 - - SSW 1013,1 16 0,0
17.02.2019 19:00:00 9,8 6,3 - - 21 11 - - SSW 1013,0 17 0,0
17.02.2019 18:00:00 10,1 5,7 - - 22 12 - - S 1012,5 21 0,0
17.02.2019 17:00:00 11,0 5,9 - - 24 13 - - SSW 1012,1 17 0,0
17.02.2019 16:00:00 12,2 6,1 - - 24 13 - - SSW 1012,0 21 0,0
17.02.2019 15:00:00 12,4 6,6 - - 29 16 - - SSW 1012,0 30 0,0
17.02.2019 14:00:00 13,0 7,5 - - 22 12 - - WSW 1011,9 11 0,0
17.02.2019 13:00:00 12,2 6,9 - - 18 10 - - SW 1012,2 17 0,0
17.02.2019 12:00:00 12,0 8,4 - - 18 10 - - SSW 1012,2 30 -
17.02.2019 11:00:00 11,6 9,5 - - 15 8 - - S 1011,9 22 -
17.02.2019 10:00:00 11,0 9,6 - - 18 10 - - S 1011,3 26 0,0
17.02.2019 09:00:00 11,0 8,4 8,5 8,7 28 15 - - S 1011,1 15 0,0
17.02.2019 08:00:00 10,0 7,2 - - 16 9 - - SSE 1011,1 19 0,0
17.02.2019 07:00:00 8,3 4,6 - - 26 14 - - SE 1010,4 24 0,0
17.02.2019 06:00:00 8,5 4,4 - - 29 16 - - SE 1010,1 35 0,0
17.02.2019 05:00:00 7,9 4,7 - - 24 13 - - ESE 1011,3 26 0,0
17.02.2019 04:00:00 8,3 4,9 - - 16 9 - - ESE 1012,1 20 0,0
17.02.2019 03:00:00 8,6 6,1 - - 24 13 - - SE 1012,5 16 0,0
17.02.2019 02:00:00 8,9 6,9 - - 29 16 46 25 SE 1013,4 12 0,0
17.02.2019 01:00:00 9,9 7,7 - - 29 16 - - SE 1014,1 15 0,0
17.02.2019 00:00:00 9,7 8,0 - - 31 17 46 25 ESE 1014,8 14 0,0
16.02.2019 23:00:00 10,0 8,1 - - 26 14 - - ESE 1016,0 29 0,0
16.02.2019 22:00:00 10,0 7,7 - - 18 10 - - ESE 1017,2 25 0,0
16.02.2019 21:00:00 10,8 7,8 - - 18 10 - - ESE 1017,8 28 0,0
16.02.2019 20:00:00 10,8 7,7 - - 13 7 - - SE 1018,6 35 0,0
16.02.2019 19:00:00 10,9 7,7 - - 18 10 - - S 1018,8 26 0,0
16.02.2019 18:00:00 11,5 8,2 - - 18 10 - - S 1018,8 23 0,0
16.02.2019 17:00:00 12,2 9,4 - - 16 9 - - S 1018,8 22 0,0
16.02.2019 16:00:00 12,6 10,0 - - 21 11 - - S 1019,0 27 0,0
16.02.2019 15:00:00 13,3 9,8 - - 22 12 - - SSW 1019,3 30 0,0
16.02.2019 14:00:00 14,2 10,1 - - 26 14 - - SSW 1019,9 50 0,0
16.02.2019 13:00:00 13,6 10,1 - - 24 13 - - SSW 1020,7 23 0,0
16.02.2019 12:00:00 12,6 9,7 - - 21 11 - - S 1021,3 16 0,0
16.02.2019 11:00:00 12,1 9,0 - - 15 8 - - S 1021,5 25 0,0
16.02.2019 10:00:00 11,9 8,5 - - 9 5 - - S 1021,5 29 0,0
16.02.2019 09:00:00 10,3 8,1 8,2 8,5 9 5 - - ESE 1021,6 27 0,0
16.02.2019 08:00:00 9,9 7,7 - - 5 3 - - SE 1021,3 30 0,0
16.02.2019 07:00:00 9,7 8,3 - - 8 4 - - S 1021,2 17 0,0
16.02.2019 06:00:00 9,6 8,2 - - 5 3 - - SSW 1021,2 13 0,0
16.02.2019 05:00:00 9,1 7,4 - - 5 3 - - W 1021,4 11 0,0
16.02.2019 04:00:00 10,4 8,9 - - 13 7 - - W 1021,5 10 0,0
16.02.2019 03:00:00 11,2 9,2 - - 18 10 - - WSW 1021,4 14 0,0
16.02.2019 02:00:00 11,2 9,8 - - 8 4 - - SW 1021,5 10 0,0
16.02.2019 01:00:00 11,3 9,9 - - 8 4 - - S 1021,5 13 0,0

tt = temperature
td = dewpoint
tt -20cm = temperature -20cm
tt -100cm = temperature -100cm
ff = wind speed
fx = gusts
dd = wind direction
ppp = reduced air pressure
vv = visibility
rr = precipitation

Next stations